This is the latest recevied weather packets stored in our database for station/object SP2FH-13. If no packets are shown the sender has not sent any weather packets the latest 10 day(s).
| Time | Temp. | Humidity | Pressure | Rain* | Wind** | Luminosity | Snow |
|---|---|---|---|---|---|---|---|
| 1777619863 | 12.22° C | 52% | 1016.1 hPa | - | - | 448 W/m² | - |
| 1777619562 | 12.22° C | 51% | 1016.2 hPa | - | - | 435 W/m² | - |
| 1777619261 | 12.22° C | 53% | 1016.1 hPa | - | - | 420 W/m² | - |
| 1777618960 | 12.22° C | 51% | 1016.1 hPa | - | - | 407 W/m² | - |
| 1777618658 | 11.67° C | 53% | 1016.1 hPa | - | - | 391 W/m² | - |
| 1777618358 | 11.67° C | 52% | 1016.1 hPa | - | - | 378 W/m² | - |
| 1777618056 | 11.67° C | 54% | 1016.1 hPa | - | - | 365 W/m² | - |
| 1777617755 | 11.67° C | 54% | 1016 hPa | - | - | 354 W/m² | - |
| 1777617454 | 11.67° C | 56% | 1016.1 hPa | - | - | 336 W/m² | - |
| 1777617153 | 11.67° C | 53% | 1016.1 hPa | - | - | 323 W/m² | - |
| 1777616852 | 11.11° C | 55% | 1016.1 hPa | - | - | 307 W/m² | - |
| 1777616551 | 11.11° C | 56% | 1016.1 hPa | - | - | 292 W/m² | - |
| 1777616250 | 10.56° C | 56% | 1016.1 hPa | - | - | 277 W/m² | - |
| 1777615949 | 10° C | 58% | 1016 hPa | - | - | 261 W/m² | - |
| 1777615648 | 10° C | 59% | 1016 hPa | - | - | 247 W/m² | - |
| 1777615347 | 10° C | 59% | 1016 hPa | - | - | 209 W/m² | - |
| 1777615047 | 10° C | 60% | 1016 hPa | - | - | 53 W/m² | - |
| 1777614745 | 10° C | 61% | 1016 hPa | - | - | 70 W/m² | - |
| 1777614444 | 9.44° C | 61% | 1016 hPa | - | - | 97 W/m² | - |
| 1777614143 | 8.89° C | 62% | 1016 hPa | - | - | 178 W/m² | - |
| 1777613842 | 8.89° C | 63% | 1016 hPa | - | - | 165 W/m² | - |
| 1777613541 | 8.33° C | 64% | 1016 hPa | - | - | 153 W/m² | - |
| 1777613240 | 8.33° C | 65% | 1016 hPa | - | - | 141 W/m² | - |
| 1777612940 | 8.33° C | 66% | 1015.9 hPa | - | - | 128 W/m² | - |
| 1777612639 | 7.78° C | 66% | 1015.9 hPa | - | - | 117 W/m² | - |
* Rain since midnight (hover to see other rain measurements)
** Current wind speed in m/s (hover to see current wind gust speed)